Date String (YYYY-MM-DD hh:mm:ss) UTC,Instrument flags,absolute air pressure of the measurement (hPa),sample flow rate (lpm),inlet stack bypass flow (lpm),air temperature of the measurement (°C),ambient temperature measured by the external sensor (°C),aerosol sample conditioner tube jacket temperature (°C),OPC LED temperature (°C),internal box temperature (°C),relative humidity of the measurement (%),span deviation,mass concentration of particles derived from Lorenz-Mie calculation of OPC scattering (μg/m³),mass concentration of particles derived from Lorenz-Mie calculation of OPC scattering (μg/m³),mass concentration of particles derived from Lorenz-Mie calculation of OPC scattering (μg/m³)
DateTimeUTC,F1_M11,P_M11,Q1_M11,Q2_M11,T1_M11,T2_M11,T3_M11,T4_M11,T5_M11,U1_M11,ZSPAN_M11,X2_M11,X0_M11,X1_M11
2024-03-06 01:00:00,SystemResetWarning,0824.4,5.00,000.00,019.2,018.6,000.0,027.7,020.8,18.1,0000.0,0003.38,0014.18,0001.99
2024-03-06 01:01:00,SystemResetWarning,0824.4,5.00,000.00,019.2,018.6,000.0,027.7,020.7,18.2,0000.0,0003.21,0012.93,0001.77
2024-03-06 01:02:00,SystemResetWarning,0824.4,5.01,000.00,019.2,018.6,000.0,027.6,020.7,18.2,0000.0,0003.06,0011.95,0001.59
2024-03-06 01:03:00,SystemResetWarning,0824.4,5.00,000.00,019.2,018.6,000.0,027.6,020.7,18.3,0000.0,0002.80,0011.04,0001.44
2024-03-06 01:04:00,SystemResetWarning,0824.4,4.99,000.00,019.1,018.6,000.0,027.6,020.7,18.3,0000.0,0002.55,0009.76,0001.30
2024-03-06 01:05:00,SystemResetWarning,0824.4,4.99,000.00,019.1,018.6,000.0,027.6,020.7,18.3,0000.0,0002.34,0008.45,0001.19
2024-03-06 01:06:00,SystemResetWarning,0824.3,5.00,000.00,019.1,018.5,000.0,027.6,020.7,18.3,0000.0,0002.13,0007.99,0001.08
2024-03-06 01:07:00,SystemResetWarning,0824.4,5.00,000.00,019.1,018.6,000.0,027.6,020.8,18.3,0000.0,0001.96,0005.91,0001.00
2024-03-06 01:08:00,SystemResetWarning,0824.4,5.01,000.00,019.1,018.5,000.0,027.6,020.8,18.4,0000.0,0001.90,0005.62,0000.97
2024-03-06 01:09:00,SystemResetWarning,0824.5,5.00,000.00,019.1,018.5,000.0,027.6,020.8,18.4,0000.0,0001.85,0005.47,0000.95
2024-03-06 01:10:00,SystemResetWarning,0824.5,4.99,000.00,019.1,018.6,000.0,027.6,020.8,18.4,0000.0,0001.81,0005.32,0000.95
2024-03-06 01:11:00,SystemResetWarning,0824.5,5.00,000.00,019.1,018.5,000.0,027.6,020.8,18.4,0000.0,0001.74,0004.61,0000.93
2024-03-06 01:12:00,SystemResetWarning,0824.6,5.00,000.00,019.1,018.6,000.0,027.6,020.8,18.4,0000.0,0001.71,0004.11,0000.93
2024-03-06 01:13:00,SystemResetWarning,0824.6,5.00,000.00,019.1,018.6,000.0,027.6,020.9,18.4,0000.0,0001.59,0003.22,0000.92
2024-03-06 01:14:00,SystemResetWarning,0824.6,5.00,000.00,019.2,018.6,000.0,027.6,020.9,18.4,0000.0,0001.50,0002.97,0000.92
2024-03-06 01:15:00,SystemResetWarning,0824.6,5.00,000.00,019.2,018.6,000.0,027.6,020.9,18.5,0000.0,0001.48,0002.94,0000.92
2024-03-06 01:16:00,SystemResetWarning,0824.6,5.00,000.00,019.2,018.6,000.0,027.6,020.9,18.4,0000.0,0001.52,0003.05,0000.93
2024-03-06 01:17:00,SystemResetWarning,0824.6,5.00,000.00,019.2,018.6,000.0,027.6,020.9,18.4,0000.0,0001.53,0003.01,0000.93
2024-03-06 01:18:00,SystemResetWarning,0824.7,5.00,000.00,019.2,018.7,000.0,027.6,021.0,18.4,0000.0,0001.51,0003.27,0000.92
2024-03-06 01:19:00,SystemResetWarning,0824.7,5.00,000.00,019.2,018.7,000.0,027.6,021.0,18.3,0000.0,0001.51,0003.67,0000.93
2024-03-06 01:20:00,SystemResetWarning,0824.7,5.00,000.00,019.2,018.7,000.0,027.6,021.0,18.3,0000.0,0001.50,0003.77,0000.93
2024-03-06 01:21:00,SystemResetWarning,0824.7,5.00,000.00,019.3,018.7,000.0,027.6,021.0,18.3,0000.0,0001.49,0003.59,0000.94
2024-03-06 01:22:00,SystemResetWarning,0824.7,5.00,000.00,019.3,018.7,000.0,027.6,021.0,18.3,0000.0,0001.51,0003.89,0000.94
2024-03-06 01:23:00,SystemResetWarning,0824.7,5.00,000.00,019.3,018.7,000.0,027.6,021.0,18.3,0000.0,0001.53,0005.52,0000.95
2024-03-06 01:24:00,SystemResetWarning,0824.7,5.00,000.00,019.3,018.7,000.0,027.6,021.1,18.4,0000.0,0001.56,0005.54,0000.95
2024-03-06 01:25:00,SystemResetWarning,0824.7,5.01,000.00,019.3,018.7,000.0,027.7,021.1,18.5,0000.0,0001.59,0005.61,0000.96
2024-03-06 01:26:00,SystemResetWarning,0824.7,5.00,000.00,019.3,018.7,000.0,027.7,021.1,18.5,0000.0,0001.61,0005.68,0000.96
2024-03-06 01:27:00,SystemResetWarning,0824.8,5.00,000.00,019.3,018.7,000.0,027.7,021.1,18.5,0000.0,0001.66,0006.17,0000.96
2024-03-06 01:28:00,SystemResetWarning,0824.7,5.00,000.00,019.3,018.8,000.0,027.7,021.1,18.5,0000.0,0001.70,0006.33,0000.97
2024-03-06 01:29:00,SystemResetWarning,0824.7,5.01,000.00,019.3,018.8,000.0,027.7,021.1,18.5,0000.0,0001.71,0006.17,0000.98
2024-03-06 01:30:00,SystemResetWarning,0824.7,5.00,000.00,019.3,018.8,000.0,027.7,021.1,18.5,0000.0,0001.79,0006.60,0000.97
2024-03-06 01:31:00,SystemResetWarning,0824.7,5.00,000.00,019.3,018.8,000.0,027.7,021.1,18.4,0000.0,0001.79,0006.47,0000.98
2024-03-06 01:32:00,SystemResetWarning,0824.7,4.99,000.00,019.3,018.8,000.0,027.7,021.1,18.4,0000.0,0001.80,0006.57,0000.97
2024-03-06 01:33:00,SystemResetWarning,0824.7,4.99,000.00,019.4,018.8,000.0,027.7,021.1,18.4,0000.0,0001.84,0006.42,0000.98
2024-03-06 01:34:00,SystemResetWarning,0824.7,5.01,000.00,019.4,018.8,000.0,027.7,021.1,18.5,0000.0,0001.87,0005.44,0000.99
2024-03-06 01:35:00,SystemResetWarning,0824.7,5.01,000.00,019.4,018.8,000.0,027.7,021.1,18.5,0000.0,0001.85,0005.43,0000.99
2024-03-06 01:36:00,SystemResetWarning,0824.7,4.99,000.00,019.4,018.8,000.0,027.7,021.1,18.5,0000.0,0001.83,0005.36,0000.99
2024-03-06 01:37:00,SystemResetWarning,0824.7,4.99,000.00,019.4,018.8,000.0,027.7,021.1,18.5,0000.0,0001.82,0005.34,0000.99
2024-03-06 01:38:00,SystemResetWarning,0824.8,5.00,000.00,019.4,018.8,000.0,027.7,021.1,18.5,0000.0,0001.86,0005.64,0001.00
2024-03-06 01:39:00,SystemResetWarning,0824.7,5.01,000.00,019.4,018.8,000.0,027.8,021.1,18.6,0000.0,0001.90,0007.38,0001.00
2024-03-06 01:40:00,SystemResetWarning,0824.8,5.00,000.00,019.4,018.8,000.0,027.8,021.1,18.6,0000.0,0001.94,0007.96,0001.00
2024-03-06 01:41:00,SystemResetWarning,0824.7,5.00,000.00,019.4,018.8,000.0,027.8,021.1,18.6,0000.0,0001.91,0007.58,0001.01
2024-03-06 01:42:00,SystemResetWarning,0824.7,5.01,000.00,019.4,018.8,000.0,027.8,021.1,18.6,0000.0,0001.94,0007.56,0001.02
2024-03-06 01:43:00,SystemResetWarning,0824.7,4.99,000.00,019.4,018.8,000.0,027.8,021.1,18.5,0000.0,0002.00,0007.69,0001.03
2024-03-06 01:44:00,SystemResetWarning,0824.7,4.99,000.00,019.4,018.8,000.0,027.8,021.1,17.2,0000.0,0001.94,0007.60,0001.04
2024-03-06 01:45:00,SystemResetWarning,0824.7,5.01,000.00,019.4,018.8,000.0,027.8,021.2,16.6,0000.0,0001.94,0007.39,0001.04
2024-03-06 01:46:00,SystemResetWarning,0824.8,5.01,000.00,019.4,018.8,000.0,027.8,021.2,16.4,0000.0,0001.94,0008.09,0001.03
2024-03-06 01:47:00,SystemResetWarning,0824.8,5.00,000.00,019.4,018.8,000.0,027.8,021.2,16.3,0000.0,0002.02,0008.26,0001.04
2024-03-06 01:48:00,SystemResetWarning,0824.8,4.99,000.00,019.4,018.8,000.0,027.8,021.2,16.0,0000.0,0002.08,0008.36,0001.05
2024-03-06 01:49:00,SystemResetWarning,0824.8,5.01,000.00,019.4,018.8,000.0,027.8,021.2,15.9,0000.0,0002.03,0008.22,0001.05
2024-03-06 01:50:00,SystemResetWarning,0824.8,5.02,000.00,019.4,018.8,000.0,027.8,021.2,15.7,0000.0,0001.97,0006.83,0001.06
2024-03-06 01:51:00,SystemResetWarning,0824.8,5.00,000.00,019.5,018.8,000.0,027.8,021.2,15.5,0000.0,0001.93,0005.64,0001.07
2024-03-06 01:52:00,SystemResetWarning,0824.8,4.99,000.00,019.5,018.8,000.0,027.8,021.2,15.5,0000.0,0001.90,0005.71,0001.07
2024-03-06 01:53:00,SystemResetWarning,0824.9,4.99,000.00,019.5,018.8,000.0,027.8,021.2,15.5,0000.0,0001.87,0007.21,0001.06
2024-03-06 01:54:00,SystemResetWarning,0824.9,5.01,000.00,019.5,018.8,000.0,027.8,021.2,15.5,0000.0,0001.81,0007.00,0001.06
2024-03-06 01:55:00,SystemResetWarning,0824.9,5.00,000.00,019.5,018.8,000.0,027.8,021.2,15.5,0000.0,0001.80,0006.94,0001.06
2024-03-06 01:56:00,SystemResetWarning,0824.9,5.00,000.00,019.5,018.8,000.0,027.8,021.2,15.5,0000.0,0001.80,0006.91,0001.05
2024-03-06 01:57:00,SystemResetWarning,0824.9,5.01,000.00,019.5,018.8,000.0,027.9,021.2,15.5,0000.0,0001.78,0006.52,0001.04
2024-03-06 01:58:00,SystemResetWarning,0824.9,5.00,000.00,019.5,018.8,000.0,027.9,021.2,15.4,0000.0,0001.74,0005.66,0001.04
2024-03-06 01:59:00,SystemResetWarning,0824.9,4.99,000.00,019.5,018.8,000.0,027.9,021.2,15.3,0000.0,0001.68,0005.67,0001.02
